CZ-6A DEB, 54338

Orbit data source: Space-Track

CZ-6A DEB, 54338 is space debris in SSO originally from a launch on Fri, 11 Nov 2022 UTC launched from the Taiyaun Space Center, China (TSC). Debris objects in space refer to the collection of defunct objects orbiting the Earth. Examples of debris include non-operational satellites, rocket bodies, and fragments generated from explosions, collisions, or faulty payload assembly.

Loading next visibility...
Identifier
54338, 2022-151CH
Orbit
SSO
Country
Flag of CNCN / PRC
Related business
Manufacturer
SAST
Mission
Spacecraft
Bus & Motor
Unknown
Mass
Unknown
Launch date (UTC)
2022-11-11 (4 years ago)
Launch vehicle
Unknown
Launch site
Taiyaun Space Center, China (TSC)
Object type
Payload
Rocket body
Debris
Shape & HBR
Unknown shape, 0.2 m
Radar Cross Section
Medium (>0.1 m² and <1 m²)

Expand to show TLE details & history
Last TLE update: 13 hours ago

TLE from 13 hours ago
0 CZ-6A DEB
1 54338U 22151CH  26208.45867318  .00000958  00000-0  51788-3 0  9998
2 54338  98.8371 214.7210 0038548 209.7104 150.1880 14.14612482190487
Epoch: 2026-07-27T11:00Z
TLE epoch observation values (Epoch: 2026-07-27T11:00:29.362Z)
Latitude
-0.00003°
Longitude
104.45671°
Altitude
870.719 km
Speed
7.405 km/s
True Right ascension
14h 18m 53s
True Declination
0° 00' 00"
Sunlit
Object was in daylight at epoch
Visualization orbit readout
Latitude
Unknown
Longitude
Unknown
Altitude
Unknown
Speed
Unknown
Apparent Right ascension
Unknown
Apparent Declination
Unknown
Sunlit
N/A
Visualization observer readout
Local Sidereal Time
13:24:54
Azimuth
Unknown
Elevation
Unknown
Doppler factor
Unknown
Orbital elements
Apogee altitude
868.63 km
Perigee altitude
812.975 km
Semi-major axis
7,218.94 km
Eccentricity
0.00385
Inclination
98.8371°
RAAN
214.721°
Arg. of periapsis
209.7104°
True anomaly
150.40669°
Mean anomaly
150.188°
Eccentric anomaly
150.29744°
Mean motion
3.53861 °/min
Orbital period
101.73 mins
BSTAR
0.00051788
Loading maneuver chart data...
Computing Atmospheric mass density...
Loading historical data...
Loading historical data...
Loading historical data...
Loading historical data...
Loading historical data...
Loading historical data...
Loading historical data...

Documentation

Showing up to 5 results
|